Tracking 19192 objects as of 19-Jun-2018
HD Live streaming from Space Station
objects crossing your sky now

FENGYUN 1C DEB

Track FENGYUN 1C DEB now!
10-day predictions


NORAD ID: 37036
Int'l Code: 1999-025EDU
Perigee: 802.1 km
Apogee: 993.0 km
Inclination: 98.9 °
Period: 102.8 minutes
Semi major axis: 7268 km
RCS: 0.0071 m2 (small)
Launch date: May 10, 1999
Source: People's Republic of China (PRC)
Launch site: Taiyaun Space Center, China (TSC)

Note: This is SATELLITE DEBRIS
aabbcc
Your satellite tracking list
Your tracking list is empty




NASA's NSSDC Master Catalog

Two Line Element Set (TLE):
1 37036U 99025EDU 18169.37834681  .00000354  00000-0  24567-3 0  9998
2 37036  98.9305 224.9716 0131334 121.6553 239.7500 14.00969041545536
Source of the keplerian elements: AFSPC